Home > Weather > U.S.A. > Virginia Beach > Past weeks

Flag for U.S.A. Weather past 2 weeks in Virginia Beach, Virginia, U.S.A.

59 °F


Feels Like: 59 °F
Forecast: 53 / 64 °F
Wind: No wind

Location: Virginia Beach - Oceana

Current Time: Dec 1, 2015 at 11:56:18 AM

Latest Report: Dec 1, 2015 at 10:56 AM

Visibility: 9 mi

Pressure: 30.11 "Hg

Humidity: 84%

Dew point: 54 °F

Location of Virginia BeachLocation

Historic Weather in Virginia Beach — Graph


Virginia Beach temperature yesterday

Maximum temperature yesterday: 58 °F (at 4:56 PM)
Minimum temperature yesterday: 51 °F (at 3:56 AM)
Average temperature yesterday: 56 °F

Past Weeks' High & Low Weather Summary

High73 °F (Nov 27, 1:56 PM)100% (Nov 22, 11:56 AM)30.75 "Hg (Nov 22, 11:56 AM)
Low29 °F (Nov 24, 6:56 AM)21% (Nov 16, 1:56 PM)29.91 "Hg (Nov 22, 2:56 PM)
Average56 °F69%30.27 "Hg
* Reported Nov 16 10:56 AM — Dec 1 10:56 AM, Virginia Beach, Weather by CustomWeather, © 2015

Note: Actual official high and low records may vary slightly from our data, if they occured in-between our weather recording intervals... More about our weather records


Virginia Beach weather history for previous 24 hours

Time TempWeatherWind HumidityBarometerVisibility
10:56 AM
Tue, Dec 1
59 °FCloudy.No wind84%30.11 "Hg9 mi
9:56 AM57 °FCloudy.7 mph83%30.14 "Hg8 mi
8:56 AM55 °FCloudy.7 mph83%30.13 "Hg9 mi
7:56 AM53 °FFog.3 mph86%30.13 "Hg6 mi
6:56 AM52 °FLight rain. Fog.5 mph89%30.14 "Hg2 mi
5:56 AM52 °FFog.5 mph89%30.13 "Hg2 mi
4:56 AM53 °FFog.8 mph86%30.12 "Hg1 mi
3:56 AM53 °FFog.6 mph89%30.11 "Hg1 mi
2:56 AM54 °FFog.3 mph90%30.12 "Hg1 mi
1:56 AM54 °FFog.3 mph90%30.13 "Hg1 mi
12:56 AM55 °FFog.5 mph90%30.13 "Hg2 mi
11:56 PM
Mon, Nov 30
55 °FFog.6 mph90%30.14 "Hg2 mi
10:56 PM56 °FLight rain. Fog.6 mph87%30.16 "Hg4 mi
9:56 PM57 °FLight rain. Fog.3 mph87%30.17 "Hg3 mi
8:56 PM58 °FLight rain. Fog.6 mph87%30.18 "Hg3 mi
7:56 PM57 °FLight rain. Fog.9 mph87%30.19 "Hg3 mi
6:56 PM57 °FLight rain. Fog.10 mph87%30.19 "Hg3 mi
5:56 PM58 °FFog.7 mph87%30.19 "Hg4 mi
4:56 PM58 °FLight rain. Fog.8 mph87%30.18 "Hg2 mi
3:56 PM57 °FLight rain. Fog.8 mph87%30.19 "Hg2 mi
2:56 PM57 °FLight rain. Fog.12 mph87%30.19 "Hg2 mi
1:56 PM57 °FLight rain. Fog.8 mph87%30.19 "Hg2 mi
1:03 PM57 °FLight rain. Fog.8 mph87%30.20 "Hg3 mi
12:56 PM57 °FLight rain. Fog.7 mph87%30.20 "Hg1 mi
11:56 AM56 °FLight rain. Fog.8 mph87%30.22 "Hg1 mi
Weather by CustomWeather, © 2015

See weather overviewHow to use our weather pages